Lapse_Rate
7.2 7.2 7.3 7.3 7.3 7.4 7.4 7.4 7.5 7.5 7.5 7.7 7.6 7.4 7.4 7.0 6.8 6.7 6.5 6.2 5.9 5.7 5.3 5.2 5.2 5.3 5.2 5.1 5.0 4.9 4.8 4.8 4.7 4.6 5.4 5.9 6.0 6.5 6.6 7.0 7.2 6.8 5.7 5.5 6.3
7.2 7.2 7.2 7.3 7.2 7.3 7.4 7.5 7.6 7.6 7.7 7.8 7.8 7.6 7.4 7.4 7.1 6.8 6.7 6.4 6.2 5.9 5.8 5.7 5.5 5.3 5.2 5.1 5.2 5.1 5.1 5.0 5.6 5.8 6.3 6.2 6.5 6.7 6.9 7.1 7.3 7.1 6.2 6.1 6.4
7.4 7.4 7.3 7.4 7.5 7.5 7.5 7.6 7.6 7.7 7.8 7.9 7.9 7.8 7.6 7.4 7.4 6.9 6.7 6.6 6.4 6.1 6.1 5.7 5.5 5.6 5.4 5.2 5.2 5.5 5.4 5.7 6.3 6.4 6.4 6.8 7.0 6.6 6.8 7.2 7.2 7.1 6.9 6.6 6.8
7.4 7.4 7.6 7.5 7.6 7.6 7.7 7.8 7.8 7.8 7.7 7.9 7.9 7.9 7.8 7.5 7.3 7.1 6.8 6.6 6.4 6.3 6.1 5.8 5.7 5.5 5.5 5.5 5.6 5.6 5.8 6.0 6.5 6.9 7.2 7.4 7.1 7.0 6.9 7.2 7.4 7.2 6.9 6.9 6.9
7.3 7.4 7.5 7.7 7.8 7.8 7.8 7.9 8.0 8.0 8.0 7.9 7.9 7.9 7.9 7.8 7.7 7.3 6.9 6.5 6.4 6.3 6.3 6.1 5.9 5.7 5.5 5.6 5.9 6.2 6.2 6.3 6.7 7.0 7.5 7.7 7.6 7.0 6.9 7.2 7.5 7.1 7.1 7.0 7.3
7.3 7.5 7.6 7.6 7.7 7.7 7.8 8.0 8.1 8.1 8.2 8.1 8.0 7.9 7.9 7.8 7.6 7.4 7.0 6.8 6.5 6.3 6.2 6.1 6.1 6.0 6.0 5.8 6.0 6.2 6.5 6.6 6.9 7.0 7.5 7.9 7.8 7.2 7.7 7.3 7.4 7.2 7.4 7.2 7.2
7.1 7.3 7.5 7.5 7.6 7.7 7.8 7.8 8.0 8.1 8.2 8.1 8.0 7.8 7.8 7.7 7.6 7.4 7.3 7.0 6.8 6.6 6.3 6.2 6.3 6.1 6.3 6.2 6.2 6.3 6.5 7.0 7.1 7.1 7.4 7.9 7.7 7.6 7.6 7.7 7.7 7.8 7.8 7.0 7.2
7.1 7.3 7.4 7.5 7.6 7.6 7.6 7.7 7.8 8.0 8.2 8.1 8.0 7.9 7.8 7.6 7.4 7.3 7.2 7.2 7.1 6.9 6.4 6.3 6.4 6.5 6.5 6.6 6.8 6.5 6.8 6.5 7.0 7.1 7.4 7.7 7.9 7.8 7.8 7.9 7.9 8.1 7.2 6.6 6.7
7.0 7.2 7.3 7.4 7.6 7.4 7.5 7.6 7.5 7.6 8.0 8.0 7.9 7.8 7.7 7.4 7.5 7.4 7.2 7.2 7.1 7.0 6.9 6.7 6.6 6.6 6.5 6.3 6.6 6.4 6.3 6.6 7.2 7.4 7.6 7.7 8.1 7.9 7.8 7.8 7.9 7.8 6.3 6.2 6.6
6.9 7.1 7.3 7.4 7.4 7.4 7.3 7.3 7.3 7.5 7.7 7.6 7.6 7.5 7.4 7.5 7.6 7.6 7.5 7.3 7.2 7.1 7.1 7.0 6.8 6.9 6.8 6.4 5.6 6.0 6.0 6.8 7.3 7.7 7.9 8.0 8.0 8.0 7.6 7.4 7.6 7.2 6.2 5.9 6.6
6.6 6.7 6.8 6.9 7.2 7.2 7.1 7.0 7.0 7.1 7.4 7.3 7.3 7.4 7.1 7.2 7.4 7.3 7.3 7.4 7.3 7.3 7.3 7.2 6.9 6.8 6.7 6.6 6.3 6.6 6.5 7.2 7.7 7.7 7.9 8.0 8.2 8.3 7.4 7.1 7.2 7.1 6.2 5.8 6.0
6.1 6.3 6.5 6.4 6.5 6.6 6.7 6.6 6.4 6.4 7.0 7.1 7.1 7.0 7.1 7.3 7.3 7.2 7.3 7.2 7.1 7.4 7.4 7.4 7.1 6.8 7.0 7.0 6.7 6.8 7.1 7.7 7.9 7.9 7.8 7.9 8.3 8.1 7.5 6.7 6.6 6.8 6.2 6.1 6.4
5.7 5.9 5.8 5.9 5.8 5.8 6.0 6.1 6.2 6.3 6.6 6.6 6.6 6.7 6.9 7.1 7.2 7.1 7.3 7.4 7.5 7.4 7.4 7.4 7.1 7.1 7.0 7.3 7.3 6.7 7.0 7.4 7.7 7.9 7.9 8.1 8.2 7.9 7.6 7.1 6.9 6.0 6.4 6.3 6.5
5.5 5.6 6.0 5.7 5.4 5.5 5.5 5.7 5.9 6.2 6.4 6.2 6.3 6.4 6.5 6.8 7.1 6.9 7.0 7.0 7.2 7.1 7.1 7.0 7.0 7.2 7.1 7.1 6.7 6.7 6.9 7.4 7.8 8.5 7.8 8.2 7.8 7.4 7.7 7.7 7.1 6.5 6.0 6.2 6.3
5.4 5.1 5.3 5.3 5.0 5.2 5.3 5.6 5.7 5.8 3.7 6.2 6.4 6.5 6.6 6.7 6.7 6.7 6.7 7.1 7.4 7.0 7.1 6.9 7.2 7.1 7.0 6.6 6.7 6.5 7.0 7.4 7.6 8.0 8.2 8.0 7.7 6.8 7.4 7.5 7.3 7.0 6.9 6.2 6.2
5.7 5.0 5.1 5.1 4.9 4.9 5.0 5.2 5.5 5.8 5.8 6.1 6.3 6.4 6.6 6.5 6.5 6.5 6.5 6.7 7.2 7.2 7.2 7.1 6.7 6.6 6.5 6.7 6.8 6.7 7.1 7.2 7.6 7.9 7.3 7.1 7.2 6.5 6.4 6.3 6.9 7.1 6.8 6.6 6.6
5.5 5.2 4.9 4.9 5.0 4.6 4.6 4.7 5.2 5.6 6.0 5.9 6.2 6.3 6.4 6.3 6.3 6.3 6.4 6.5 6.7 6.8 7.0 6.9 6.6 6.3 6.4 6.8 6.7 6.9 7.1 6.3 6.5 6.5 6.5 7.1 6.8 6.2 6.4 6.2 6.3 6.8 6.8 6.5 6.1
5.3 5.3 5.2 4.9 4.7 4.9 4.9 4.5 4.8 5.2 5.6 5.6 5.8 5.9 6.0 6.0 5.9 6.0 5.9 5.8 5.7 6.0 6.0 6.1 6.4 5.9 5.9 5.9 6.1 6.4 6.1 5.6 5.6 5.3 5.6 6.7 6.3 6.0 6.2 6.2 6.6 6.4 6.3 6.5 6.4
5.4 5.5 5.3 5.0 4.8 4.6 4.8 4.2 4.5 5.0 5.1 5.3 5.3 5.5 5.5 5.6 5.5 5.4 5.6 5.4 5.4 5.4 5.5 5.7 5.9 5.6 5.8 5.7 5.9 5.8 5.7 5.6 5.5 5.1 5.2 5.8 5.7 5.9 6.1 6.3 6.6 6.6 6.6 6.5 6.4
5.6 5.7 5.5 5.2 5.0 4.6 4.7 4.6 4.3 4.4 4.5 4.8 4.8 5.1 5.1 5.3 5.4 5.2 5.3 5.2 5.0 5.0 5.0 5.4 5.4 5.5 5.4 5.3 5.5 5.6 5.7 5.7 5.6 5.0 5.0 5.0 5.4 5.3 6.1 6.2 6.3 6.3 6.3 6.3 6.2
5.2 5.4 5.4 5.5 5.2 4.9 4.6 4.6 4.5 4.5 4.6 4.7 4.6 4.5 4.8 4.9 5.2 5.2 5.1 5.1 4.8 4.9 4.9 4.9 5.1 5.5 5.2 5.2 5.4 5.5 5.2 5.3 5.1 5.0 4.8 4.5 4.8 4.7 5.0 5.5 5.7 5.9 6.1 6.3 6.4
5.0 5.0 5.5 5.5 5.2 4.8 4.9 4.6 4.6 4.5 4.5 4.4 4.7 4.8 4.7 4.7 4.8 5.0 5.0 5.0 4.8 4.7 4.8 4.7 4.7 5.0 5.1 5.1 5.0 5.0 5.3 5.4 5.4 5.2 5.3 4.7 4.8 5.2 5.1 5.2 5.2 5.4 5.5 5.8 6.0
5.2 4.8 5.6 5.5 4.9 4.8 4.7 4.4 4.3 4.6 4.4 4.3 4.5 4.6 4.8 4.6 4.6 4.8 4.7 4.6 4.5 4.5 4.4 4.2 4.3 4.7 4.9 4.7 4.7 4.9 4.9 4.7 4.6 4.7 4.9 4.8 4.9 4.3 4.0 4.0 4.6 4.9 5.1 5.2 5.3
5.0 4.8 5.3 5.3 5.0 4.8 4.7 4.7 4.6 4.5 4.4 4.4 4.5 4.7 4.6 4.6 4.6 4.6 4.4 4.2 4.3 4.3 4.3 4.4 4.3 4.4 4.7 4.9 5.0 4.9 5.0 4.7 4.5 4.4 4.9 5.5 5.5 5.2 4.8 4.9 4.7 4.2 4.3 4.6 4.6
5.0 5.1 5.1 5.1 5.4 5.0 4.6 4.5 4.3 4.4 4.4 4.4 4.4 4.6 4.5 4.5 4.7 4.7 4.6 4.4 4.2 4.4 4.3 4.1 4.2 4.3 4.4 4.4 4.7 4.8 5.2 5.1 4.9 5.0 4.5 4.9 5.1 5.3 5.1 4.9 5.2 5.2 4.8 4.4 4.1
4.8 4.8 4.7 4.9 5.4 5.2 4.6 4.7 4.4 4.2 4.2 4.4 4.4 4.3 4.4 4.4 4.5 4.5 4.6 4.6 4.5 4.4 4.2 4.1 4.0 4.3 4.8 4.9 4.9 5.2 5.2 5.1 5.1 5.1 4.6 4.1 4.4 4.4 4.3 3.9 4.3 4.4 4.3 4.4 4.5
4.8 4.7 4.7 4.9 5.1 5.2 5.3 4.7 4.4 4.3 4.2 4.2 4.4 4.3 4.4 4.3 4.5 4.5 4.5 4.7 4.6 4.6 4.4 4.1 3.9 3.7 4.4 4.6 4.7 5.4 5.3 5.2 5.3 5.4 5.5 5.1 5.1 4.6 3.9 3.4 3.2 3.8 3.9 4.0 4.2
Wind_Speed
12 12 12 11 12 13 13 13 13 13 13 13 13 14 16 17 12 2 2 4 2 8 5 5 3 5 3 3 2 2 2 3 4 3 4 5 5 3 3 9 8 5 10 6 10
13 13 14 14 14 14 14 13 13 13 13 13 13 13 13 13 2 3 6 4 5 5 3 5 6 5 3 2 1 2 1 5 6 4 7 8 6 11 5 11 9 11 13 5 13
12 13 13 14 15 15 15 15 14 14 14 14 13 12 12 3 1 4 3 4 6 2 3 2 1 2 3 2 0 2 4 3 11 13 11 14 11 5 6 10 9 8 8 6 11
12 13 13 12 13 15 16 16 16 14 14 13 14 13 10 1 2 3 2 3 5 1 2 2 4 3 2 3 1 3 8 8 7 6 6 13 6 5 7 11 14 9 10 8 13
11 12 13 15 15 16 16 16 15 15 13 12 11 12 0 3 5 1 1 6 1 2 1 1 2 1 3 3 4 4 4 4 9 15 12 12 15 9 10 17 11 12 13 12 15
15 16 16 18 19 19 20 20 18 17 13 10 9 8 2 2 1 1 5 4 1 1 1 2 2 2 2 3 2 2 6 15 10 8 5 5 5 7 12 2 7 8 6 8 12
18 20 21 19 19 20 20 19 20 17 12 8 5 0 1 7 2 4 4 2 0 1 1 2 3 2 1 5 3 4 6 9 3 3 4 3 5 7 13 5 9 4 5 11 2
20 20 22 21 21 21 20 19 21 11 7 4 3 1 5 1 2 3 4 2 4 1 1 1 4 3 1 4 6 4 1 5 7 7 3 1 7 8 4 7 5 5 11 7 6
20 21 23 24 25 25 22 18 5 5 5 6 2 2 5 2 3 2 1 3 2 2 3 3 3 2 4 4 4 6 5 6 8 3 3 1 7 4 7 7 3 8 12 3 9
20 23 24 25 27 28 25 2 2 4 3 1 2 2 3 2 4 2 0 1 3 2 2 5 4 3 3 6 5 8 5 5 6 6 5 5 6 7 8 8 2 4 9 2 4
21 23 23 24 27 26 11 3 6 3 8 1 4 3 4 7 3 2 3 1 2 8 4 4 5 3 6 3 6 5 3 6 5 3 5 6 5 8 9 9 9 3 7 6 4
20 23 26 23 22 19 5 6 2 2 7 3 3 4 4 3 4 3 4 3 5 3 6 5 2 4 6 3 5 3 4 5 8 3 4 6 12 7 13 9 8 12 7 2 2
20 22 26 26 9 6 5 3 3 2 1 6 2 2 3 3 2 4 4 2 4 4 5 1 3 6 3 4 7 2 3 5 5 7 1 4 17 12 5 6 14 11 9 2 4
21 22 23 29 6 2 3 6 3 1 4 5 4 3 2 0 2 2 3 1 3 4 3 3 4 6 5 2 1 5 1 3 5 3 3 7 6 10 11 16 17 17 14 10 4
21 22 19 12 2 3 4 8 2 2 5 4 4 2 2 3 3 3 2 3 1 3 4 3 6 6 5 5 0 7 4 2 3 3 3 12 6 9 8 16 19 17 17 12 4
20 23 15 4 2 0 8 4 2 5 4 4 2 5 5 5 5 7 5 5 1 2 2 4 3 0 3 5 2 8 2 4 3 2 5 4 2 10 7 8 15 20 16 14 12
20 19 5 1 2 9 5 3 5 4 3 4 3 5 1 4 5 6 5 6 4 5 6 6 2 4 2 6 5 9 6 3 5 5 1 5 6 3 6 7 7 11 16 16 14
22 8 4 2 7 6 2 5 0 2 2 3 3 3 3 4 3 7 2 4 4 4 1 3 7 6 7 3 3 5 4 3 2 1 3 5 3 3 4 6 10 10 12 16 17
13 2 2 5 7 2 4 4 5 4 2 6 4 3 4 2 2 5 3 0 1 3 3 4 4 2 2 1 1 4 5 1 4 1 1 3 2 3 15 19 20 19 19 19 18
2 2 2 9 7 4 4 4 3 2 2 1 2 2 2 4 4 5 2 1 2 2 2 1 4 1 4 1 3 5 1 3 3 2 2 3 0 2 11 14 15 18 17 16 16
2 3 2 8 2 4 3 5 3 3 1 2 1 3 1 2 1 2 1 2 2 1 3 2 2 6 1 3 2 3 3 5 4 2 1 2 2 3 4 7 9 12 13 14 16
2 3 2 3 3 1 2 4 2 2 1 2 2 2 2 1 2 2 1 1 2 1 1 1 3 3 3 4 3 2 4 4 3 3 2 2 3 1 1 4 8 11 13 13 13
2 2 2 3 1 2 3 3 3 1 3 2 2 3 1 1 2 2 1 0 3 1 1 2 1 4 5 3 2 3 1 4 5 3 5 4 1 1 5 7 8 10 11 11 13
3 3 3 3 1 3 1 3 3 2 2 2 2 2 1 2 2 2 2 1 4 2 6 2 2 6 6 6 2 5 4 4 4 3 3 5 5 2 6 9 12 11 12 13 13
2 4 2 2 2 3 2 1 3 2 2 2 1 4 4 3 1 3 2 4 3 4 3 3 4 4 6 8 4 7 9 5 7 5 5 2 4 5 8 9 9 7 12 15 17
4 3 1 1 2 5 3 4 6 3 5 3 4 5 4 5 7 4 2 2 6 3 2 2 3 1 4 6 3 5 7 6 5 2 5 4 3 4 4 7 12 11 14 15 17
1 1 2 3 3 4 5 6 5 3 1 1 4 4 3 5 4 5 6 5 3 3 2 1 2 2 5 4 6 5 2 2 4 5 2 1 4 9 7 12 10 9 12 14 16
Wind_Direction
360 353 348 345 340 335 332 330 330 331 332 335 337 334 333 334 326 40 311 229 268 317 9 335 34 1 55 68 63 123 82 253 251 223 239 235 261 261 260 262 278 246 284 284 152
357 353 347 343 338 334 330 327 326 326 327 327 329 330 329 332 343 308 245 258 282 342 18 29 358 360 44 43 37 99 171 234 219 220 250 262 264 280 277 275 274 279 271 204 161
355 349 349 343 336 330 327 323 323 321 321 321 322 325 325 331 57 259 263 270 287 347 142 132 72 59 53 4 146 158 223 224 263 244 251 266 268 233 251 275 246 267 273 187 192
352 351 341 334 331 328 323 319 317 314 314 315 318 324 331 208 45 239 210 290 320 300 116 46 31 38 14 330 293 275 244 250 273 254 266 259 248 224 224 258 257 244 258 241 196
352 341 332 330 327 321 319 316 311 307 305 307 315 323 13 25 253 234 327 338 354 120 138 117 65 109 326 289 310 203 271 281 264 286 274 262 251 257 271 262 274 269 251 235 200
350 339 338 335 328 326 323 319 311 303 294 293 304 322 131 318 167 52 347 341 74 119 170 172 185 188 255 255 191 254 271 284 287 285 262 255 281 163 248 282 271 276 290 189 201
350 345 342 335 330 323 319 313 308 301 284 276 275 278 142 224 95 334 344 314 38 152 276 224 156 120 58 299 290 288 315 323 231 293 285 189 278 231 258 323 285 349 79 81 23
350 347 339 334 329 323 317 316 311 309 276 239 186 150 240 254 332 60 349 69 14 78 167 58 122 99 153 307 351 333 56 345 298 341 2 336 284 282 350 325 312 158 92 85 82
349 347 340 335 328 323 318 319 342 69 104 133 135 152 287 329 32 346 39 324 299 65 68 97 62 75 21 9 352 14 300 303 312 309 311 328 284 298 332 351 329 126 123 141 89
350 347 342 337 334 327 324 327 50 89 77 142 73 60 322 307 292 311 281 43 82 107 59 53 49 50 40 39 327 301 324 293 265 307 354 329 299 323 345 350 334 116 111 202 160
351 345 343 340 337 338 346 30 15 352 42 264 303 269 316 290 301 4 10 52 29 56 18 351 59 338 294 233 234 273 244 269 270 309 351 335 332 1 349 20 39 22 151 169 169
350 345 339 340 341 354 35 68 95 262 315 335 250 282 245 285 342 352 18 51 46 26 339 16 34 306 272 253 273 271 294 328 297 326 27 347 28 18 20 7 12 22 332 194 188
346 347 341 336 355 39 65 61 316 166 307 313 274 298 322 3 342 297 28 103 71 25 26 143 301 320 346 330 356 322 22 317 264 319 74 336 42 33 355 21 34 12 10 87 175
344 345 345 337 51 319 50 332 329 139 52 317 357 12 348 53 347 320 2 58 35 20 2 248 322 350 323 359 30 335 62 277 307 33 18 353 51 13 349 32 30 10 4 347 137
343 342 345 28 250 53 308 330 332 76 25 292 309 199 322 66 313 345 338 22 61 320 87 306 344 354 335 329 316 259 346 3 334 75 41 360 69 348 6 17 7 9 21 21 35
341 340 337 21 57 355 322 328 60 41 263 355 304 354 18 17 351 321 17 42 104 117 47 260 286 224 271 318 274 290 47 42 46 53 42 324 64 18 10 344 354 7 13 18 17
340 339 358 41 308 332 327 43 29 122 330 327 330 13 11 329 3 32 24 15 33 20 360 326 346 328 356 351 358 14 37 3 20 18 238 328 68 62 346 336 340 345 357 4 9
335 342 356 46 333 346 55 49 91 320 327 355 335 317 59 10 22 353 43 26 26 54 37 33 336 19 335 62 305 350 50 106 123 1 296 325 57 355 318 322 353 17 11 11 11
329 6 347 334 344 46 67 55 223 197 263 336 319 40 353 20 6 26 49 327 264 39 38 10 289 327 56 344 75 332 35 232 99 44 79 335 20 248 359 3 10 11 12 12 8
11 18 290 334 337 56 72 229 249 239 337 34 303 41 325 320 22 32 355 313 16 35 104 290 306 316 293 142 52 102 173 31 12 36 12 329 99 333 352 349 359 23 19 13 19
40 9 260 340 34 50 162 223 269 277 181 154 245 294 263 291 293 295 307 29 18 24 68 114 113 288 12 33 258 1 40 65 118 77 100 319 243 10 326 352 19 24 21 13 10
92 317 309 18 30 3 177 210 238 252 227 263 154 218 217 250 295 289 271 240 315 153 69 220 155 283 270 302 274 237 152 128 122 234 144 171 244 169 239 5 26 23 16 12 14
134 249 323 76 210 264 274 278 241 215 236 220 222 205 197 232 317 227 280 256 35 28 96 191 311 335 358 354 339 292 57 91 90 79 215 162 225 90 0 3 12 26 17 14 10
95 277 340 59 41 152 246 251 263 198 247 196 218 122 158 240 183 279 283 245 328 312 38 107 176 189 204 227 184 282 195 192 145 164 205 227 141 2 18 9 1 6 5 7 7
116 233 189 212 226 176 195 275 245 220 214 196 219 200 188 227 269 235 249 328 329 7 72 109 235 181 261 267 232 253 268 220 198 201 194 287 127 8 354 349 354 2 5 5 2
157 164 22 154 111 146 206 235 212 239 169 236 222 182 177 203 201 240 187 195 239 6 74 10 271 316 261 278 274 260 267 243 231 223 257 150 117 356 325 341 3 19 7 1 355
139 20 151 146 145 137 214 219 222 187 213 218 203 145 201 237 223 229 212 214 208 160 125 260 183 19 275 347 311 294 316 83 108 66 352 178 56 7 342 345 356 24 8 355 351